Location: Alphen
(52.1351°N, 4.6549°E)
Time: 02:08:12
(UTC+00:00)

Cosmos 1328 - Pass Details

Date: 27 January 2021
Orbit: 528 x 555 km, 82.5° (Epoch: 26 February)

Event Time Altitude Azimuth Distance (km) Brightness Sun altitude
Exits shadow 04:46:54 55° 134° (SE) 645 4.3 -24.7°
Drops below altitude 10° 04:50:06 10° 162° (SSE) 1,773 6.6 -24.2°
Sets 04:52:14 0° 165° (SSE) 2,657 7.5 -23.9°
